BEIDOU 5

Last updated on May 15, 2019, 3:07 a.m. UTC

1 36828U 10036A   19134.14060461 -.00000119  00000-0  10000-3 0  9993
2 36828  54.1436 186.7636 0081048 233.8380 341.2670  1.00274424 32234
UTC
Height (km)
Latitude
Longitude
Inclination
Orbital Period
UTC large
Height (km)
Speed (km/s)
/
Latitude / Longitude
Inclination (degrees)
Orbital Period (minutes)
Azimuth
Elevation
Range (km)
Doppler Factor
iOS Compass Heading
iOS Angle

Next 30 passes for location: Hong Kong

Rise time Rise Azimuth (degrees) Set time Set Azimuth (degrees) Duration Max altitude (degrees)

No matching passes for this satellites